Location: Antioch Church
(34.9543°N, 88.5145°W)
Time: 02:51:47
(UTC+00:00)

Helios 1A Rocket - Pass Details

Date: 11 December 2019
Orbit: 563 x 587 km, 98.3° (Epoch: 19 January)

Event Time Altitude Azimuth Distance (km) Brightness Sun altitude
Rises 11:39:41 0° 9° (N) 2,765 6.3 -14.4°
Reaches altitude 10° 11:41:50 10° 7° (N) 1,863 5.4 -14.0°
Maximum altitude 11:45:50 68° 285° (WNW) 611 2.8 -13.2°
Drops below altitude 10° 11:49:48 10° 202° (SSW) 1,849 5.5 -12.4°
Sets 11:51:56 0° 200° (SSW) 2,742 6.4 -12.0°
